San Antonio, TX

4:33 PM CDT on May 24, 2018 (GMT -0500)
San Antonio International

Weather History for KSAT - January, 2014

Change the Weather History Date:

Wednesday, January 22, 2014

  Actual Average Record
Temperature  
Mean Temperature 53 °F 52 °F  
Max Temperature 71 °F 63 °F 84 °F (1972)
Min Temperature 34 °F 41 °F 17 °F (1930)
Degree Days  
Heating Degree Days 12 13  
Month to date heating degree days 268 303  
Since 1 July heating degree days 908 905  
Cooling Degree Days 0 0  
Month to date cooling degree days 1 0  
Year to date cooling degree days 1 0  
Growing Degree Days 3 (Base 50)    
Moisture  
Dew Point 25 °F    
Average Humidity 39    
Maximum Humidity 64    
Minimum Humidity 13    
Precipitation  
Precipitation 0.00 in 0.06 in 1.85 in (2015)
Month to date precipitation 0.12 1.21  
Year to date precipitation 0.12 1.21  
Snow  
Snow 0.00 in - - ()
Month to date snowfall 0.0  
Since 1 July snowfall 0.0  
Snow Depth 0.00 in    
Sea Level Pressure  
Sea Level Pressure 30.07 in    
Wind  
Wind Speed 7 mph (SSW)    
Max Wind Speed 16 mph    
Max Gust Speed 20 mph    
Visibility 10 miles    
Events      
T = Trace of Precipitation, MM = Missing Value Source: NWS Daily Summary

Daily Weather History Graph

Daily Weather History Graph

Search for Another Location

Airport or City:

Astronomy

Jan. 22, 2014 Rise Set
Actual Time 7:27 AM CST 6:03 PM CST
Civil Twilight 7:02 AM CST 6:28 PM CST
Nautical Twilight 6:33 AM CST 6:57 PM CST
Astronomical Twilight 6:05 AM CST 7:26 PM CST
Moon No Moon Rise 11:00 AM CST (1/22)
Length of Visible Light 11h 26m
Length of Day
10h 35m
Waning Gibbous, 65% of the Moon is Illuminated
Jan 22
Waning Gibbous
Jan 23
Last Quarter
Jan 30
New
Feb 6
First Quarter
Feb 14
Full

Hourly Weather History & Observations

Time (CST) Temp. Windchill Dew Point Humidity Pressure Visibility Wind Dir Wind Speed Gust Speed Precip Events Conditions
12:51 AM 37.9 °F 34.4 °F 26.1 °F 62% 30.20 in 10.0 mi NW 4.6 mph - N/A   Partly Cloudy
1:51 AM 39.0 °F 36.8 °F 25.0 °F 57% 30.19 in 10.0 mi NW 3.5 mph - N/A   Clear
2:51 AM 37.0 °F 32.4 °F 25.0 °F 62% 30.18 in 10.0 mi WNW 5.8 mph - N/A   Clear
3:51 AM 35.1 °F 30.1 °F 24.1 °F 64% 30.16 in 10.0 mi WNW 5.8 mph - N/A   Clear
4:51 AM 35.1 °F 32.2 °F 25.0 °F 67% 30.15 in 10.0 mi West 3.5 mph - N/A   Clear
5:51 AM 36.0 °F 31.1 °F 25.0 °F 64% 30.14 in 10.0 mi WNW 5.8 mph - N/A   Clear
6:51 AM 36.0 °F 32.1 °F 24.1 °F 62% 30.15 in 10.0 mi NW 4.6 mph - N/A   Clear
7:51 AM 37.0 °F - 25.0 °F 62% 30.16 in 10.0 mi Calm Calm - N/A   Partly Cloudy
8:51 AM 48.0 °F - 28.0 °F 46% 30.16 in 10.0 mi Calm Calm - N/A   Partly Cloudy
9:51 AM 55.9 °F - 21.9 °F 27% 30.17 in 10.0 mi SW 12.7 mph - N/A   Partly Cloudy
10:51 AM 61.0 °F - 21.9 °F 22% 30.16 in 10.0 mi SSW 12.7 mph - N/A   Partly Cloudy
11:51 AM 64.0 °F - 21.9 °F 20% 30.13 in 10.0 mi South 13.8 mph - N/A   Partly Cloudy
12:51 PM 68.0 °F - 19.9 °F 16% 30.07 in 10.0 mi WSW 10.4 mph 17.3 mph N/A   Mostly Cloudy
1:51 PM 70.0 °F - 19.0 °F 14% 30.01 in 10.0 mi South 11.5 mph - N/A   Mostly Cloudy
2:51 PM 68.0 °F - 19.0 °F 15% 29.99 in 10.0 mi South 10.4 mph - N/A   Mostly Cloudy
3:51 PM 71.1 °F - 17.1 °F 13% 29.97 in 10.0 mi South 11.5 mph - N/A   Mostly Cloudy
4:51 PM 70.0 °F - 18.0 °F 14% 29.97 in 10.0 mi SSE 10.4 mph - N/A   Scattered Clouds
5:51 PM 66.0 °F - 18.0 °F 16% 29.96 in 10.0 mi South 8.1 mph - N/A   Scattered Clouds
6:51 PM 57.9 °F - 19.9 °F 23% 29.97 in 10.0 mi ESE 5.8 mph - N/A   Scattered Clouds
7:51 PM 57.0 °F - 21.9 °F 26% 29.98 in 10.0 mi SSE 5.8 mph - N/A   Scattered Clouds
8:51 PM 54.0 °F - 26.1 °F 34% 29.98 in 10.0 mi SSE 6.9 mph - N/A   Scattered Clouds
9:51 PM 57.0 °F - 37.9 °F 49% 29.99 in 10.0 mi SSE 9.2 mph - N/A   Scattered Clouds
10:51 PM 55.9 °F - 42.1 °F 60% 30.01 in 10.0 mi SE 4.6 mph - N/A   Mostly Cloudy
11:51 PM 55.9 °F - 46.9 °F 72% 29.99 in 10.0 mi SE 8.1 mph - N/A   Mostly Cloudy